This is the latest recevied weather packets stored in our database for station/object W8CEN. If no packets are shown the sender has not sent any weather packets the latest 10 day(s).
| Time | Temp. | Humidity | Pressure | Rain* | Wind** | Luminosity | Snow |
|---|---|---|---|---|---|---|---|
| 1777870430 | 10.56° C | 66% | 988.6 hPa | 0 mm | - | 0 W/m² | - |
| 1777870127 | 10.56° C | 65% | 988.6 hPa | 0 mm | - | 0 W/m² | - |
| 1777869824 | 10.56° C | 65% | 988.6 hPa | 0 mm | - | 0 W/m² | - |
| 1777869522 | 10.56° C | 66% | 988.5 hPa | 0 mm | - | 0 W/m² | - |
| 1777869218 | 11.11° C | 66% | 988.5 hPa | 0 mm | - | 0 W/m² | - |
| 1777868916 | 11.11° C | 65% | 988.9 hPa | 0 mm | - | 0 W/m² | - |
| 1777868612 | 11.11° C | 65% | 988.6 hPa | 0 mm | - | 0 W/m² | - |
| 1777868308 | 11.11° C | 66% | 989 hPa | 0 mm | - | 0 W/m² | - |
| 1777868004 | 11.11° C | 65% | 988.8 hPa | 0 mm | - | 0 W/m² | - |
| 1777867701 | 10.56° C | 66% | 988.9 hPa | 0 mm | - | 0 W/m² | - |
| 1777867399 | 10.56° C | 66% | 988.9 hPa | 0 mm | - | 0 W/m² | - |
| 1777867094 | 10.56° C | 66% | 988.9 hPa | 0 mm | - | 0 W/m² | - |
| 1777866792 | 10.56° C | 67% | 989.1 hPa | 0 mm | - | 0 W/m² | - |
| 1777866489 | 10.56° C | 67% | 988.9 hPa | 0 mm | - | 0 W/m² | - |
| 1777865884 | 10.56° C | 68% | 989.1 hPa | 0 mm | - | 0 W/m² | - |
| 1777865278 | 10.56° C | 68% | 989.2 hPa | 0 mm | - | 0 W/m² | - |
| 1777864975 | 10.56° C | 69% | 989.3 hPa | 0 mm | - | 0 W/m² | - |
| 1777846794 | 16.67° C | 36% | 989.8 hPa | 0 mm | - | 112 W/m² | - |
| 1777844669 | 17.22° C | 34% | 990.1 hPa | 0 mm | - | 406 W/m² | - |
| 1777842852 | 17.22° C | 34% | 990.1 hPa | 0 mm | - | 461 W/m² | - |
| 1777842547 | 17.78° C | 34% | 990 hPa | 0 mm | - | 470 W/m² | - |
| 1777841939 | 17.78° C | 32% | 990 hPa | 0 mm | - | 517 W/m² | - |
| 1777840727 | 17.22° C | 33% | 990.3 hPa | 0 mm | - | 613 W/m² | - |
| 1777840121 | 17.78° C | 32% | 990.3 hPa | 0 mm | - | 623 W/m² | - |
| 1777839819 | 17.78° C | 33% | 990.3 hPa | 0 mm | - | 623 W/m² | - |
* Rain latest hour (hover to see other rain measurements)
** Current wind speed in m/s (hover to see current wind gust speed)